M I D A S
Marine Information and Data Acquisition System
Tripno 1624 of the Zeeleeuw from 2008-12-09 08:39:32 to 2008-12-10 15:39:31
Back to CruiseResearch ActivitiesStationsMapUnderway DataData graphs

EquipmentUnitsComment
TimeDGPSUTC
LatitudeDGPSDM.mWGS84
LongitudeDGPSDM.mWGS84
HeadingGyrodeg 
SOGDGPSknotsSpeed over ground
COGDGPSdegCourse over ground
DepthEcho soundermeters200 kHz
Missing or incorrect values are displayed as -999
Navigation data collected by the RV Zeeleeuw from 2008-12-09 08:38:46 to 2008-12-10 15:40:52
                                                                                    Next 1000 lines
Time Latitude Longitude Heading SOG COG Depth
2008-12-09 08:38:56 51°13.623 2°56.048 124.5 -999 73 10.2
2008-12-09 08:39:01 51°13.623 2°56.048 124 0.1 92 10.2
2008-12-09 08:39:06 51°13.623 2°56.048 122.8 -999 116 10.2
2008-12-09 08:39:11 51°13.623 2°56.048 122 -999 261 10.2
2008-12-09 08:39:16 51°13.623 2°56.048 120.9 -999 191 10.2
2008-12-09 08:39:21 51°13.623 2°56.048 119.8 -999 152 10.2
2008-12-09 08:39:26 51°13.623 2°56.048 118.9 0.1 188 10.2
2008-12-09 08:39:31 51°13.622 2°56.048 117.7 0.1 196 10.2
2008-12-09 08:39:36 51°13.622 2°56.048 116.1 0.1 197 10.3
2008-12-09 08:39:41 51°13.622 2°56.048 114.7 0.2 188 10.2
2008-12-09 08:39:46 51°13.622 2°56.048 113.3 0.1 187 10.2
2008-12-09 08:39:51 51°13.622 2°56.048 111.7 0.1 186 10.2
2008-12-09 08:39:56 51°13.621 2°56.048 110.2 0.1 196 10.2
2008-12-09 08:40:01 51°13.621 2°56.048 108.7 0.1 197 10.2
2008-12-09 08:40:06 51°13.621 2°56.048 107.1 0.1 201 10.2
2008-12-09 08:40:11 51°13.621 2°56.048 105.6 0.1 226 10.2
2008-12-09 08:40:17 51°13.621 2°56.047 104.1 0.2 267 10.3
2008-12-09 08:40:22 51°13.621 2°56.046 102.9 0.6 276 10.2
2008-12-09 08:40:27 51°13.621 2°56.044 101.6 0.8 276 10.3
2008-12-09 08:40:32 51°13.622 2°56.042 100.6 1 280 10.3
2008-12-09 08:40:37 51°13.622 2°56.039 99.8 1.1 280 10.2
2008-12-09 08:40:42 51°13.622 2°56.036 99.4 1.3 278 10.2
2008-12-09 08:40:47 51°13.623 2°56.033 99.3 1.4 280 10
2008-12-09 08:40:52 51°13.623 2°56.03 99.3 1.6 280 10.4
2008-12-09 08:40:57 51°13.623 2°56.025 99.6 1.9 277 -999
2008-12-09 08:41:02 51°13.624 2°56.021 100.8 2.1 279 -999
2008-12-09 08:41:07 51°13.624 2°56.016 103 2.2 281 -999
2008-12-09 08:41:12 51°13.625 2°56.011 104.4 2.3 282 -999
2008-12-09 08:41:17 51°13.626 2°56.006 106.1 2.6 285 -999
2008-12-09 08:41:22 51°13.627 2°56 108.1 2.8 286 -999
2008-12-09 08:41:27 51°13.629 2°55.994 110.1 3 290 -999
2008-12-09 08:41:32 51°13.63 2°55.987 111 3.1 289 -999
2008-12-09 08:41:37 51°13.632 2°55.98 112.4 3.3 293 -999
2008-12-09 08:41:42 51°13.634 2°55.973 113.9 3.5 293 -999
2008-12-09 08:41:47 51°13.636 2°55.966 116.5 3.6 298 -999
2008-12-09 08:41:52 51°13.638 2°55.959 118.6 3.6 299 -999
2008-12-09 08:41:57 51°13.641 2°55.952 121 3.7 303 -999
2008-12-09 08:42:02 51°13.644 2°55.945 122.6 3.8 302 -999
2008-12-09 08:42:07 51°13.647 2°55.938 124.5 3.8 306 -999
2008-12-09 08:42:12 51°13.65 2°55.931 125.5 3.9 305 -999
2008-12-09 08:42:17 51°13.653 2°55.924 126.7 3.9 308 -999
2008-12-09 08:42:22 51°13.657 2°55.917 127.8 4 308 -999
2008-12-09 08:42:27 51°13.661 2°55.91 128.6 4.1 310 -999
2008-12-09 08:42:32 51°13.664 2°55.903 129.1 4.2 309 -999
2008-12-09 08:42:37 51°13.668 2°55.896 129.3 4.2 310 -999
2008-12-09 08:42:42 51°13.672 2°55.889 129.3 4.2 309 -999
2008-12-09 08:42:47 51°13.675 2°55.881 129.3 4.2 309 -999
2008-12-09 08:42:52 51°13.679 2°55.874 129.2 4.3 309 -999
2008-12-09 08:42:57 51°13.683 2°55.867 129.1 4.3 310 -999
2008-12-09 08:43:02 51°13.687 2°55.86 129.1 4.3 309 -999
2008-12-09 08:43:07 51°13.691 2°55.852 129.1 4.3 310 -999
2008-12-09 08:43:12 51°13.695 2°55.845 129.3 4.3 310 -999
2008-12-09 08:43:17 51°13.699 2°55.838 129.4 4.4 311 -999
2008-12-09 08:43:22 51°13.703 2°55.83 129.5 4.3 310 -999
2008-12-09 08:43:27 51°13.707 2°55.823 129.5 4.3 310 -999
2008-12-09 08:43:32 51°13.71 2°55.816 129.5 4.3 311 -999
2008-12-09 08:43:37 51°13.714 2°55.809 129.2 4.3 310 -999
2008-12-09 08:43:42 51°13.718 2°55.801 128.9 4.3 310 -999
2008-12-09 08:43:47 51°13.722 2°55.794 128.5 4.4 310 -999
2008-12-09 08:43:52 51°13.726 2°55.786 128.3 4.4 309 -999
2008-12-09 08:43:57 51°13.73 2°55.779 128.4 4.5 310 -999
2008-12-09 08:44:02 51°13.734 2°55.771 129 4.5 310 -999
2008-12-09 08:44:07 51°13.738 2°55.763 129.7 4.5 311 -999
2008-12-09 08:44:12 51°13.742 2°55.756 130.2 4.6 311 -999
2008-12-09 08:44:17 51°13.746 2°55.748 131 4.6 311 -999
2008-12-09 08:44:22 51°13.751 2°55.741 131.9 4.6 312 -999
2008-12-09 08:44:27 51°13.755 2°55.733 132.9 4.6 313 -999
2008-12-09 08:44:32 51°13.759 2°55.726 133.8 4.6 314 -999
2008-12-09 08:44:37 51°13.764 2°55.719 135 4.6 315 -999
2008-12-09 08:44:42 51°13.768 2°55.712 136.4 4.6 316 -999
2008-12-09 08:44:47 51°13.773 2°55.705 137.9 4.6 317 -999
2008-12-09 08:44:52 51°13.777 2°55.698 139.5 4.6 319 -999
2008-12-09 08:44:57 51°13.782 2°55.691 140.9 4.6 320 -999
2008-12-09 08:45:02 51°13.787 2°55.685 141.9 4.5 321 -999
2008-12-09 08:45:07 51°13.792 2°55.679 142.7 4.5 322 -999
2008-12-09 08:45:12 51°13.797 2°55.673 143.6 4.5 323 -999
2008-12-09 08:45:17 51°13.802 2°55.667 144.4 4.4 324 -999
2008-12-09 08:45:22 51°13.807 2°55.662 145.4 4.5 325 -999
2008-12-09 08:45:27 51°13.812 2°55.656 146.2 4.5 327 -999
2008-12-09 08:45:32 51°13.818 2°55.651 147.7 4.5 328 -999
2008-12-09 08:45:37 51°13.823 2°55.646 149.7 4.3 330 -999
2008-12-09 08:45:42 51°13.828 2°55.641 152.1 4.2 332 -999
2008-12-09 08:45:47 51°13.833 2°55.637 155.1 4.2 335 -999
2008-12-09 08:45:52 51°13.839 2°55.634 157 4.1 336 -999
2008-12-09 08:45:57 51°13.844 2°55.63 159.6 4.1 339 -999
2008-12-09 08:46:02 51°13.849 2°55.627 162.1 4.1 340 -999
2008-12-09 08:46:07 51°13.855 2°55.625 165.4 4.1 344 -999
2008-12-09 08:46:12 51°13.86 2°55.623 167.6 4 346 -999
2008-12-09 08:46:17 51°13.866 2°55.621 170.6 4 350 -999
2008-12-09 08:46:22 51°13.871 2°55.62 173.8 3.9 353 -999
2008-12-09 08:46:27 51°13.876 2°55.62 177.8 3.9 356 -999
2008-12-09 08:46:32 51°13.882 2°55.619 180.6 3.9 359 -999
2008-12-09 08:46:37 51°13.887 2°55.62 184 3.9 4 -999
2008-12-09 08:46:42 51°13.893 2°55.621 187.5 3.9 7 -999
2008-12-09 08:46:47 51°13.898 2°55.623 191 3.9 11 -999
2008-12-09 08:46:52 51°13.903 2°55.625 194.5 3.8 15 -999
2008-12-09 08:46:57 51°13.908 2°55.628 198 3.8 19 -999
2008-12-09 08:47:02 51°13.913 2°55.631 201.3 3.6 23 -999
2008-12-09 08:47:07 51°13.917 2°55.634 204.2 3.4 25 -999
2008-12-09 08:47:12 51°13.921 2°55.638 206.7 3.3 30 -999
2008-12-09 08:47:17 51°13.925 2°55.641 208.9 3.2 31 -999
2008-12-09 08:47:22 51°13.928 2°55.645 210.9 3 35 -999
2008-12-09 08:47:27 51°13.931 2°55.649 212.6 2.8 35 -999
2008-12-09 08:47:32 51°13.934 2°55.653 214 2.7 38 -999
2008-12-09 08:47:37 51°13.937 2°55.656 214.7 2.4 40 -999
2008-12-09 08:47:42 51°13.939 2°55.659 215.8 2 43 4.8
2008-12-09 08:47:47 51°13.94 2°55.661 217.1 1.4 43 13.1
2008-12-09 08:47:52 51°13.94 2°55.662 217.7 0.7 50 13.1
2008-12-09 08:47:57 51°13.94 2°55.662 219.1 0.2 206 13.1
2008-12-09 08:48:02 51°13.939 2°55.66 222.7 1.2 228 13.1
2008-12-09 08:48:07 51°13.938 2°55.657 228.5 1.8 239 13.1
2008-12-09 08:48:12 51°13.936 2°55.652 234.5 2.3 246 -999
2008-12-09 08:48:17 51°13.935 2°55.646 244.4 2.8 253 4.8
2008-12-09 08:48:22 51°13.935 2°55.638 252.8 3.3 264 4.8
2008-12-09 08:48:27 51°13.935 2°55.631 261.4 3.6 273 13.1
2008-12-09 08:48:32 51°13.936 2°55.622 270.2 3.8 280 13.2
2008-12-09 08:48:37 51°13.938 2°55.613 277.2 4.1 288 13.3
2008-12-09 08:48:42 51°13.941 2°55.605 286.1 4.4 296 13.4
2008-12-09 08:48:47 51°13.945 2°55.596 296.1 4.9 303 13.4
2008-12-09 08:48:52 51°13.949 2°55.587 303.3 5.1 308 13.4
2008-12-09 08:48:57 51°13.955 2°55.578 308.2 5.5 312 13.4
2008-12-09 08:49:02 51°13.961 2°55.569 312.7 5.8 317 13.5
2008-12-09 08:49:07 51°13.967 2°55.561 317 6.1 321 13.5
2008-12-09 08:49:12 51°13.974 2°55.553 321.6 6.3 324 13.6
2008-12-09 08:49:17 51°13.982 2°55.545 324.7 6.5 326 13.6
2008-12-09 08:49:22 51°13.99 2°55.536 326.1 6.8 327 13.6
2008-12-09 08:49:27 51°13.998 2°55.528 326.5 7 328 13.6
2008-12-09 08:49:32 51°14.007 2°55.519 327.2 7.2 328 13.6
2008-12-09 08:49:37 51°14.016 2°55.511 327.8 7.4 329 13.6
2008-12-09 08:49:42 51°14.025 2°55.502 328.2 7.6 327 13.5
2008-12-09 08:49:47 51°14.034 2°55.493 327.2 7.7 328 13.5
2008-12-09 08:49:52 51°14.042 2°55.484 327 7.7 327 13.3
2008-12-09 08:49:57 51°14.051 2°55.475 328.1 7.8 329 13.5
2008-12-09 08:50:02 51°14.061 2°55.466 329 7.8 330 13.5
2008-12-09 08:50:07 51°14.07 2°55.458 330.1 7.9 331 13.5
2008-12-09 08:50:12 51°14.08 2°55.449 331.1 8 332 13.5
2008-12-09 08:50:17 51°14.09 2°55.441 331.9 8 332 13.6
2008-12-09 08:50:22 51°14.099 2°55.432 331.6 8.1 331 13.6
2008-12-09 08:50:27 51°14.109 2°55.424 330.7 8.1 332 13.5
2008-12-09 08:50:32 51°14.119 2°55.416 330.4 8.2 333 13.5
2008-12-09 08:50:37 51°14.129 2°55.407 331.6 8.1 332 13.6
2008-12-09 08:50:42 51°14.139 2°55.398 332.1 8.2 331 13.6
2008-12-09 08:50:47 51°14.149 2°55.389 330.7 8.3 330 13.6
2008-12-09 08:50:52 51°14.16 2°55.38 329.4 8.3 329 13.6
2008-12-09 08:50:57 51°14.17 2°55.371 328.1 8.4 330 13.6
2008-12-09 08:51:02 51°14.18 2°55.361 328.1 8.4 328 13.6
2008-12-09 08:51:07 51°14.189 2°55.35 327.1 8.5 327 13.6
2008-12-09 08:51:12 51°14.199 2°55.34 325.9 8.5 325 13.7
2008-12-09 08:51:17 51°14.208 2°55.328 324.6 8.5 323 13.9
2008-12-09 08:51:22 51°14.217 2°55.316 322.7 8.5 321 14.2
2008-12-09 08:51:27 51°14.226 2°55.304 319.9 8.5 319 14.3
2008-12-09 08:51:32 51°14.235 2°55.291 318 8.5 317 14
2008-12-09 08:51:37 51°14.243 2°55.278 316.8 8.5 316 13.9
2008-12-09 08:51:42 51°14.251 2°55.264 314.9 8.5 313 13.8
2008-12-09 08:51:47 51°14.259 2°55.25 312.9 8.5 312 13.7
2008-12-09 08:51:52 51°14.267 2°55.236 311.7 8.5 311 13.5
2008-12-09 08:51:57 51°14.274 2°55.221 310.5 8.6 310 13.2
2008-12-09 08:52:02 51°14.282 2°55.206 309.6 8.6 309 13.2
2008-12-09 08:52:07 51°14.289 2°55.191 308.7 8.6 308 13.3
2008-12-09 08:52:12 51°14.297 2°55.176 307.7 8.7 308 13.2
2008-12-09 08:52:17 51°14.304 2°55.161 307.6 8.7 308 13.1
2008-12-09 08:52:22 51°14.311 2°55.146 307.6 8.7 307 13.1
2008-12-09 08:52:27 51°14.319 2°55.13 306.9 8.7 306 13.6
2008-12-09 08:52:32 51°14.325 2°55.115 306.2 8.7 306 13.8
2008-12-09 08:52:37 51°14.332 2°55.098 305.5 8.8 304 14
2008-12-09 08:52:42 51°14.339 2°55.082 304.3 8.8 304 13.8
2008-12-09 08:52:47 51°14.346 2°55.066 303.4 8.9 303 13.9
2008-12-09 08:52:52 51°14.352 2°55.049 303.2 8.9 303 13.7
2008-12-09 08:52:57 51°14.359 2°55.032 303 9 303 13.7
2008-12-09 08:53:02 51°14.366 2°55.016 302.9 9.1 304 13.4
2008-12-09 08:53:07 51°14.374 2°55 302.6 9 307 13.4
2008-12-09 08:53:12 51°14.382 2°54.985 303.4 9.1 311 13.4
2008-12-09 08:53:17 51°14.391 2°54.97 305.4 9 313 13.5
2008-12-09 08:53:22 51°14.399 2°54.956 306.9 9 313 13.5
2008-12-09 08:53:27 51°14.408 2°54.942 307.4 8.9 314 13.4
2008-12-09 08:53:32 51°14.416 2°54.928 307.6 8.8 313 13.7
2008-12-09 08:53:37 51°14.424 2°54.914 307.6 8.6 312 13.5
2008-12-09 08:53:42 51°14.431 2°54.898 305.7 8.5 307 13.7
2008-12-09 08:53:47 51°14.438 2°54.883 301.3 8.4 304 13.6
2008-12-09 08:53:52 51°14.444 2°54.867 297.6 8.3 301 13.5
2008-12-09 08:53:57 51°14.449 2°54.851 294.7 8.3 299 13.6
2008-12-09 08:54:02 51°14.454 2°54.835 292.4 8.2 295 13.6
2008-12-09 08:54:07 51°14.458 2°54.818 289.5 8.2 292 13.5
2008-12-09 08:54:12 51°14.462 2°54.801 286.6 8.2 289 13.6
2008-12-09 08:54:17 51°14.465 2°54.783 284.5 8.2 287 13.5
2008-12-09 08:54:22 51°14.467 2°54.766 282.4 8 282 13.6
2008-12-09 08:54:27 51°14.468 2°54.749 279.3 8 278 13.5
2008-12-09 08:54:32 51°14.469 2°54.731 275.3 7.8 272 13.5
2008-12-09 08:54:37 51°14.468 2°54.714 270.8 7.7 268 13.5
2008-12-09 08:54:42 51°14.467 2°54.697 266.5 7.7 262 13.6
2008-12-09 08:54:47 51°14.465 2°54.68 262.3 7.8 259 13.5
2008-12-09 08:54:52 51°14.462 2°54.664 258.5 7.8 256 13.4
2008-12-09 08:54:57 51°14.458 2°54.648 254.9 7.8 251 13.4
2008-12-09 08:55:02 51°14.453 2°54.632 251 8 243 13.4
2008-12-09 08:55:07 51°14.448 2°54.616 245.5 8.2 240 13.4
2008-12-09 08:55:12 51°14.441 2°54.601 239.7 8.3 237 13.1
2008-12-09 08:55:17 51°14.436 2°54.585 238.1 8.3 242 13.2
2008-12-09 08:55:22 51°14.43 2°54.568 240 8.5 240 13.3
2008-12-09 08:55:27 51°14.424 2°54.552 240.6 8.5 241 13.1
2008-12-09 08:55:32 51°14.418 2°54.535 240.6 8.7 242 13.4
2008-12-09 08:55:37 51°14.412 2°54.519 241.2 8.5 241 13.4
2008-12-09 08:55:42 51°14.406 2°54.503 241.4 8.2 241 13.5
2008-12-09 08:55:47 51°14.401 2°54.487 241.3 7.9 241 13.4
2008-12-09 08:55:52 51°14.397 2°54.473 242.3 7.7 243 13
2008-12-09 08:55:57 51°14.392 2°54.458 243 7.4 243 12.8
2008-12-09 08:56:02 51°14.388 2°54.444 243.1 7.2 245 12.5
2008-12-09 08:56:07 51°14.383 2°54.429 243.4 7.1 243 12.3
2008-12-09 08:56:12 51°14.379 2°54.416 243.7 6.9 244 12.1
2008-12-09 08:56:17 51°14.375 2°54.403 243.8 6.9 241 12.2
2008-12-09 08:56:22 51°14.37 2°54.39 242.5 6.6 242 12
2008-12-09 08:56:27 51°14.366 2°54.377 242.3 6.6 242 12.3
2008-12-09 08:56:32 51°14.362 2°54.365 242.3 6.5 241 12
2008-12-09 08:56:37 51°14.358 2°54.352 241.9 6.5 244 11.9
2008-12-09 08:56:42 51°14.353 2°54.339 242.5 6.4 242 11.9
2008-12-09 08:56:47 51°14.349 2°54.327 242.8 6.4 242 12.1
2008-12-09 08:56:52 51°14.345 2°54.314 242.8 6.4 243 12.2
2008-12-09 08:56:57 51°14.342 2°54.302 242.8 6.3 244 12.1
2008-12-09 08:57:02 51°14.337 2°54.289 243.5 6.3 242 12.1
2008-12-09 08:57:07 51°14.333 2°54.277 243 6.4 242 12.1
2008-12-09 08:57:12 51°14.33 2°54.264 242.8 6.4 245 12.1
2008-12-09 08:57:17 51°14.326 2°54.252 242.8 6.4 244 12.1
2008-12-09 08:57:22 51°14.322 2°54.239 243.1 6.2 243 12.2
2008-12-09 08:57:27 51°14.318 2°54.227 243.4 6.3 243 12.2
2008-12-09 08:57:32 51°14.313 2°54.214 242.6 6.4 241 11.9
2008-12-09 08:57:37 51°14.31 2°54.202 242.3 6.3 243 12.1
2008-12-09 08:57:42 51°14.306 2°54.189 242.6 6.3 242 11.9
2008-12-09 08:57:47 51°14.301 2°54.177 242.6 6.3 243 12.1
2008-12-09 08:57:52 51°14.297 2°54.164 242.9 6.3 242 12.2
2008-12-09 08:57:57 51°14.293 2°54.152 243.1 6.2 244 11.7
2008-12-09 08:58:02 51°14.289 2°54.14 243 6.3 241 11.7
2008-12-09 08:58:07 51°14.285 2°54.128 242.5 6.2 240 11.4
2008-12-09 08:58:12 51°14.281 2°54.116 242.1 6.2 240 11.7
2008-12-09 08:58:17 51°14.277 2°54.104 241.7 6.2 241 11.8
2008-12-09 08:58:22 51°14.273 2°54.091 241.4 6.2 243 11.8
2008-12-09 08:58:27 51°14.269 2°54.079 242.1 6.2 242 11.8
2008-12-09 08:58:32 51°14.265 2°54.067 242.3 6.2 244 11.8
2008-12-09 08:58:37 51°14.261 2°54.055 242.9 6.1 240 11.9
2008-12-09 08:58:42 51°14.257 2°54.043 242.5 6.3 243 12
2008-12-09 08:58:47 51°14.252 2°54.031 241.3 6.2 240 11.7
2008-12-09 08:58:52 51°14.248 2°54.019 241.4 6.1 238 11.9
2008-12-09 08:58:57 51°14.244 2°54.008 241.5 5.9 238 11.2
2008-12-09 08:59:02 51°14.239 2°53.997 240.2 5.9 238 11.5
2008-12-09 08:59:07 51°14.235 2°53.986 240.3 5.9 239 11.8
2008-12-09 08:59:12 51°14.231 2°53.974 240.7 6 241 11.8
2008-12-09 08:59:17 51°14.227 2°53.963 241.1 5.9 240 11.7
2008-12-09 08:59:22 51°14.222 2°53.952 241.6 5.9 237 12.1
2008-12-09 08:59:27 51°14.218 2°53.941 241.2 5.9 238 11.7
2008-12-09 08:59:32 51°14.214 2°53.929 241.5 5.9 243 11.5
2008-12-09 08:59:37 51°14.211 2°53.917 243.1 5.9 245 11.5
2008-12-09 08:59:42 51°14.208 2°53.905 244.2 6 245 11.7
2008-12-09 08:59:47 51°14.204 2°53.894 244.1 6 245 11.9
2008-12-09 08:59:52 51°14.2 2°53.882 244.2 6 243 12.2
2008-12-09 08:59:57 51°14.197 2°53.869 243.9 6.1 245 12.2
2008-12-09 09:00:02 51°14.193 2°53.857 244.1 6.2 246 12.1
2008-12-09 09:00:07 51°14.19 2°53.846 245 6.1 243 11.9
2008-12-09 09:00:12 51°14.185 2°53.834 244.7 6 243 12.1
2008-12-09 09:00:17 51°14.182 2°53.822 243.8 6.1 243 12.1
2008-12-09 09:00:22 51°14.178 2°53.81 243.2 6.1 242 11.8
2008-12-09 09:00:27 51°14.174 2°53.798 243.1 6.1 244 11.8
2008-12-09 09:00:32 51°14.17 2°53.786 243 6.2 243 12.1
2008-12-09 09:00:37 51°14.166 2°53.774 242.6 6.2 243 12.1
2008-12-09 09:00:42 51°14.162 2°53.762 242 6.2 242 12.1
2008-12-09 09:00:47 51°14.158 2°53.75 241.9 6.2 242 12.2
2008-12-09 09:00:52 51°14.153 2°53.738 241.3 6.2 241 12.2
2008-12-09 09:00:57 51°14.149 2°53.726 240.8 6.3 240 12
2008-12-09 09:01:02 51°14.145 2°53.714 240.4 6.2 239 12.1
2008-12-09 09:01:07 51°14.14 2°53.702 240.6 6.3 239 12.2
2008-12-09 09:01:12 51°14.136 2°53.691 239.5 6.2 239 11.9
2008-12-09 09:01:17 51°14.131 2°53.679 240.1 6.1 238 12
2008-12-09 09:01:22 51°14.127 2°53.667 239.7 6.1 240 12.1
2008-12-09 09:01:27 51°14.122 2°53.656 240.3 6.1 238 12.2
2008-12-09 09:01:32 51°14.118 2°53.644 240.1 6.2 240 12.2
2008-12-09 09:01:37 51°14.114 2°53.632 240.9 6.1 240 12.2
2008-12-09 09:01:42 51°14.11 2°53.62 240.6 6.2 240 12
2008-12-09 09:01:47 51°14.106 2°53.609 240.1 6.2 238 12.1
2008-12-09 09:01:52 51°14.101 2°53.596 240.2 6.3 241 12.3
2008-12-09 09:01:57 51°14.097 2°53.585 240.6 6.2 240 12.2
2008-12-09 09:02:02 51°14.093 2°53.573 240.1 6.3 240 12.2
2008-12-09 09:02:07 51°14.088 2°53.561 240.1 6.3 239 12.5
2008-12-09 09:02:12 51°14.084 2°53.548 240.3 6.4 240 12.2
2008-12-09 09:02:17 51°14.079 2°53.537 239.5 6.3 239 12
2008-12-09 09:02:22 51°14.075 2°53.524 239.3 6.4 241 12.2
2008-12-09 09:02:27 51°14.07 2°53.512 239.5 6.3 240 12
2008-12-09 09:02:32 51°14.066 2°53.5 240 6.3 241 12
2008-12-09 09:02:37 51°14.062 2°53.488 240.6 6.3 242 12.3
2008-12-09 09:02:42 51°14.057 2°53.476 241.2 6.3 238 12.2
2008-12-09 09:02:47 51°14.053 2°53.464 240.2 6.2 241 11.9
2008-12-09 09:02:52 51°14.048 2°53.454 239.8 6.1 236 11.7
2008-12-09 09:02:57 51°14.043 2°53.442 239.7 6 239 12.2
2008-12-09 09:03:02 51°14.039 2°53.43 239.2 6.1 239 11.9
2008-12-09 09:03:07 51°14.035 2°53.419 239.1 6.1 241 11.8
2008-12-09 09:03:12 51°14.031 2°53.408 239.7 5.9 241 12.1
2008-12-09 09:03:17 51°14.027 2°53.397 240.5 5.3 241 12.2
2008-12-09 09:03:22 51°14.024 2°53.388 241.1 4.9 240 12.3
2008-12-09 09:03:27 51°14.021 2°53.38 241.6 4.6 240 12.4
2008-12-09 09:03:32 51°14.018 2°53.371 242.3 4.3 242 12.4
2008-12-09 09:03:37 51°14.016 2°53.364 242.4 4 244 12.4
2008-12-09 09:03:42 51°14.014 2°53.357 244.1 3.6 248 12.4
2008-12-09 09:03:47 51°14.012 2°53.35 245.6 3.2 244 12.3
2008-12-09 09:03:52 51°14.01 2°53.345 246 3 245 12.3
2008-12-09 09:03:57 51°14.009 2°53.339 247 2.7 248 12.4
2008-12-09 09:04:02 51°14.007 2°53.334 247 2.5 244 12.4
2008-12-09 09:04:07 51°14.006 2°53.329 247.1 2.5 244 12.5
2008-12-09 09:04:12 51°14.005 2°53.325 247 2.3 246 12.4
2008-12-09 09:04:17 51°14.004 2°53.321 247 2.1 250 12.3
2008-12-09 09:04:22 51°14.002 2°53.317 247.5 1.8 244 12.5
2008-12-09 09:04:27 51°14.001 2°53.314 248.2 1.8 238 12.5
2008-12-09 09:04:32 51°14 2°53.31 247.5 1.7 237 12.1
2008-12-09 09:04:37 51°13.999 2°53.307 247.1 1.6 238 11.8
2008-12-09 09:04:42 51°13.998 2°53.305 246.6 1.5 241 11.7
2008-12-09 09:04:47 51°13.997 2°53.302 246.7 1.3 245 11.9
2008-12-09 09:04:52 51°13.996 2°53.3 247.2 1.2 244 12.1
2008-12-09 09:04:57 51°13.996 2°53.298 247.5 1.1 240 12.3
2008-12-09 09:05:02 51°13.995 2°53.296 248.1 1 243 12.6
2008-12-09 09:05:07 51°13.994 2°53.294 247.9 1 237 12.6
2008-12-09 09:05:12 51°13.993 2°53.292 248.1 1 243 12.7
2008-12-09 09:05:17 51°13.993 2°53.291 248.5 1 240 12.7
2008-12-09 09:05:22 51°13.992 2°53.288 248.1 1.1 247 12.7
2008-12-09 09:05:27 51°13.991 2°53.286 248.1 1.2 235 12.5
2008-12-09 09:05:32 51°13.99 2°53.284 247.6 1.3 242 12.5
2008-12-09 09:05:37 51°13.989 2°53.281 247.4 1.5 237 12.6
2008-12-09 09:05:42 51°13.988 2°53.278 246.6 1.7 244 12.5
2008-12-09 09:05:47 51°13.986 2°53.274 246 1.9 241 12.6
2008-12-09 09:05:52 51°13.985 2°53.27 245.9 2 241 12.6
2008-12-09 09:05:57 51°13.983 2°53.266 244.9 2.1 238 12.5
2008-12-09 09:06:02 51°13.982 2°53.262 243.6 2.4 237 12.6
2008-12-09 09:06:07 51°13.98 2°53.257 242.4 2.5 237 12.4
2008-12-09 09:06:12 51°13.978 2°53.252 242.3 2.6 234 12.1
2008-12-09 09:06:17 51°13.976 2°53.248 241 2.5 233 12.1
2008-12-09 09:06:22 51°13.974 2°53.243 240.2 2.7 234 12.2
2008-12-09 09:06:27 51°13.971 2°53.238 239.7 2.7 231 12.2
2008-12-09 09:06:32 51°13.969 2°53.234 239.6 2.8 233 12.2
2008-12-09 09:06:37 51°13.967 2°53.229 239.5 2.8 230 12.3
2008-12-09 09:06:42 51°13.964 2°53.224 239 2.7 233 12.6
2008-12-09 09:06:47 51°13.962 2°53.219 238 2.9 229 12.7
2008-12-09 09:06:52 51°13.959 2°53.214 237.2 2.8 230 12.6
2008-12-09 09:06:57 51°13.957 2°53.209 237 2.9 227 12.5
2008-12-09 09:07:02 51°13.954 2°53.204 237.6 3 230 12.2
2008-12-09 09:07:07 51°13.952 2°53.199 237.7 2.9 231 12
2008-12-09 09:07:12 51°13.95 2°53.195 238.3 2.8 230 11.7
2008-12-09 09:07:17 51°13.947 2°53.192 238.2 2.4 226 11.7
2008-12-09 09:07:22 51°13.945 2°53.189 236.3 2.2 223 11.9
2008-12-09 09:07:27 51°13.943 2°53.185 235.8 2.1 224 12.1
2008-12-09 09:07:32 51°13.941 2°53.182 236.3 2.1 228 12.3
2008-12-09 09:07:37 51°13.939 2°53.179 236.8 2 223 12.7
2008-12-09 09:07:42 51°13.937 2°53.175 237 2.1 225 12.8
2008-12-09 09:07:47 51°13.935 2°53.172 236.5 2.1 224 12.9
2008-12-09 09:07:52 51°13.933 2°53.168 237 2.1 227 12.7
2008-12-09 09:07:57 51°13.931 2°53.164 237.5 2.2 229 12.6
2008-12-09 09:08:02 51°13.929 2°53.16 238.3 2.3 233 12.8
2008-12-09 09:08:07 51°13.927 2°53.156 239 2.4 228 12.9
2008-12-09 09:08:12 51°13.925 2°53.153 239.4 2.4 231 13.1
2008-12-09 09:08:17 51°13.923 2°53.148 239.2 2.5 233 12.8
2008-12-09 09:08:22 51°13.921 2°53.144 237.6 2.5 230 12.5
2008-12-09 09:08:27 51°13.918 2°53.139 238.2 2.6 231 12.5
2008-12-09 09:08:32 51°13.916 2°53.135 237.4 2.5 230 12.3
2008-12-09 09:08:37 51°13.914 2°53.131 237.3 2.6 232 12.5
2008-12-09 09:08:42 51°13.911 2°53.127 237.6 2.6 231 12.8
2008-12-09 09:08:47 51°13.909 2°53.122 238.1 2.7 230 12.9
2008-12-09 09:08:52 51°13.907 2°53.117 238.6 2.7 235 12.9
2008-12-09 09:08:57 51°13.904 2°53.112 238.7 2.7 234 12.8
2008-12-09 09:09:02 51°13.902 2°53.106 238.2 2.7 234 12.7
2008-12-09 09:09:07 51°13.9 2°53.101 237.9 2.8 236 12.6
2008-12-09 09:09:12 51°13.897 2°53.096 238.4 2.8 234 12.4
2008-12-09 09:09:17 51°13.895 2°53.091 238.7 2.8 233 12.2
2008-12-09 09:09:22 51°13.893 2°53.086 238.7 2.8 233 12.2
2008-12-09 09:09:27 51°13.89 2°53.081 238.7 2.8 234 12.3
2008-12-09 09:09:32 51°13.888 2°53.076 238.9 2.8 236 12.6
2008-12-09 09:09:37 51°13.886 2°53.071 239.5 2.8 237 12.7
2008-12-09 09:09:42 51°13.884 2°53.065 240 2.8 235 12.8
2008-12-09 09:09:47 51°13.882 2°53.06 240.3 2.8 239 12.8
2008-12-09 09:09:52 51°13.879 2°53.054 241 2.9 239 12.8
2008-12-09 09:09:57 51°13.878 2°53.049 241.7 2.8 241 12.7
2008-12-09 09:10:02 51°13.875 2°53.044 242.3 2.7 238 12.7
2008-12-09 09:10:07 51°13.874 2°53.039 242.7 2.4 237 12.4
2008-12-09 09:10:12 51°13.871 2°53.036 243 2.4 229 12.3
2008-12-09 09:10:17 51°13.869 2°53.033 242.9 2 222 12.5
2008-12-09 09:10:22 51°13.867 2°53.03 241.8 1.8 225 12
2008-12-09 09:10:27 51°13.865 2°53.028 240.2 1.7 227 11.7
2008-12-09 09:10:32 51°13.864 2°53.026 239.5 1.6 221 11.9
2008-12-09 09:10:37 51°13.863 2°53.023 240.1 1.5 229 12.3
2008-12-09 09:10:42 51°13.862 2°53.021 241.6 1.5 234 12.7
2008-12-09 09:10:47 51°13.86 2°53.018 242.9 1.4 234 13
2008-12-09 09:10:52 51°13.859 2°53.015 244 1.4 238 13.2
2008-12-09 09:10:57 51°13.858 2°53.012 244.7 1.5 235 13
2008-12-09 09:11:02 51°13.857 2°53.009 245.3 1.6 240 12.8
2008-12-09 09:11:07 51°13.856 2°53.006 245.9 1.6 240 12.6
2008-12-09 09:11:12 51°13.854 2°53.003 247 1.6 239 12.6
2008-12-09 09:11:17 51°13.854 2°53 247.8 1.7 241 12.7
2008-12-09 09:11:22 51°13.852 2°52.997 248.1 1.7 241 12.6
2008-12-09 09:11:27 51°13.851 2°52.993 248.6 1.8 246 12.6
2008-12-09 09:11:32 51°13.85 2°52.99 248.3 1.7 239 12.6
2008-12-09 09:11:37 51°13.849 2°52.986 247.9 1.7 240 12.5
2008-12-09 09:11:42 51°13.848 2°52.983 247.4 1.9 240 12.5
2008-12-09 09:11:47 51°13.846 2°52.979 247.1 1.9 241 12.5
2008-12-09 09:11:52 51°13.845 2°52.976 246.9 1.9 240 12.5
2008-12-09 09:11:57 51°13.844 2°52.974 246.8 1.6 234 12.5
2008-12-09 09:12:02 51°13.843 2°52.971 247.5 1.3 235 12.7
2008-12-09 09:12:07 51°13.842 2°52.969 247.1 1.4 236 12.4
2008-12-09 09:12:12 51°13.84 2°52.966 246.4 1.5 236 12.4
2008-12-09 09:12:17 51°13.839 2°52.963 246.5 1.6 235 12.4
2008-12-09 09:12:22 51°13.838 2°52.959 246.7 1.7 237 12.7
2008-12-09 09:12:27 51°13.836 2°52.956 246.6 1.8 233 12.5
2008-12-09 09:12:32 51°13.835 2°52.953 246 1.8 236 12.6
2008-12-09 09:12:37 51°13.834 2°52.949 246.4 2 241 12.6
2008-12-09 09:12:42 51°13.832 2°52.945 247 2.1 234 12.4
2008-12-09 09:12:47 51°13.831 2°52.941 246.7 2.2 242 12.3
2008-12-09 09:12:52 51°13.829 2°52.937 246.3 2.2 234 12.2
2008-12-09 09:12:57 51°13.828 2°52.932 246 2.2 241 12.2
2008-12-09 09:13:02 51°13.826 2°52.929 245.8 2.1 241 12.2
2008-12-09 09:13:07 51°13.825 2°52.925 246 2.2 241 12.3
2008-12-09 09:13:12 51°13.823 2°52.92 246.1 2.2 237 12.5
2008-12-09 09:13:17 51°13.821 2°52.916 245.9 2.3 242 12.5
2008-12-09 09:13:22 51°13.82 2°52.911 245.4 2.3 244 12.5
2008-12-09 09:13:27 51°13.818 2°52.907 245.9 2.4 242 12.8
2008-12-09 09:13:32 51°13.817 2°52.902 246.2 2.4 245 12.9
2008-12-09 09:13:37 51°13.815 2°52.897 246.1 2.4 241 12.9
2008-12-09 09:13:42 51°13.813 2°52.892 245.9 2.5 241 13
2008-12-09 09:13:47 51°13.812 2°52.888 245.2 2.6 238 12.9
2008-12-09 09:13:52 51°13.81 2°52.883 244.5 2.5 243 13
2008-12-09 09:13:57 51°13.808 2°52.878 244.4 2.5 240 12.8
2008-12-09 09:14:02 51°13.806 2°52.873 244.4 2.5 242 12.8
2008-12-09 09:14:07 51°13.804 2°52.868 244.7 2.5 239 12.7
2008-12-09 09:14:12 51°13.802 2°52.863 244.4 2.5 240 12.8
2008-12-09 09:14:17 51°13.801 2°52.858 244.4 2.5 245 12.5
2008-12-09 09:14:22 51°13.799 2°52.854 244.1 2.5 239 12.4
2008-12-09 09:14:27 51°13.797 2°52.849 244.3 2.4 240 12.5
2008-12-09 09:14:32 51°13.795 2°52.845 244.2 2.4 233 12.3
2008-12-09 09:14:37 51°13.794 2°52.841 243.7 2.2 237 12.6
2008-12-09 09:14:42 51°13.792 2°52.837 243.3 2.2 243 12.5
2008-12-09 09:14:47 51°13.79 2°52.833 244.1 2.2 239 12.5
2008-12-09 09:14:52 51°13.789 2°52.829 244.3 2.2 239 12.5
2008-12-09 09:14:57 51°13.787 2°52.825 244.6 2.2 237 12.6
2008-12-09 09:15:02 51°13.785 2°52.821 245.3 2.3 236 12.8
2008-12-09 09:15:07 51°13.784 2°52.816 246 2.3 240 12.7
2008-12-09 09:15:12 51°13.782 2°52.812 245.7 2.2 238 12.7
2008-12-09 09:15:17 51°13.781 2°52.809 245.8 2.1 239 12.4
2008-12-09 09:15:22 51°13.779 2°52.805 246 2 237 12.6
2008-12-09 09:15:27 51°13.778 2°52.801 246.5 2 243 12.5
2008-12-09 09:15:32 51°13.777 2°52.797 247.4 2 243 12.6
2008-12-09 09:15:37 51°13.776 2°52.793 247.4 2 245 12.7
2008-12-09 09:15:42 51°13.774 2°52.79 247 2 246 12.7
2008-12-09 09:15:47 51°13.773 2°52.786 247.1 2 244 12.8
2008-12-09 09:15:52 51°13.772 2°52.782 247.4 2 247 12.8
2008-12-09 09:15:57 51°13.771 2°52.778 247.9 2 242 12.7
2008-12-09 09:16:02 51°13.769 2°52.774 248.2 2 245 12.6
2008-12-09 09:16:07 51°13.768 2°52.77 248.3 2 243 12.5
2008-12-09 09:16:12 51°13.767 2°52.766 247.7 2.1 242 12.5
2008-12-09 09:16:17 51°13.765 2°52.762 247.4 2.1 240 12.7
2008-12-09 09:16:22 51°13.764 2°52.758 247.3 2 243 12.7
2008-12-09 09:16:27 51°13.762 2°52.755 247.1 2 242 12.7
2008-12-09 09:16:32 51°13.761 2°52.751 246.7 2.1 233 12.5
2008-12-09 09:16:37 51°13.759 2°52.747 246 2.1 241 12.6
2008-12-09 09:16:42 51°13.758 2°52.744 245.7 2 241 12.4
2008-12-09 09:16:47 51°13.756 2°52.74 245.6 2 245 12.5
2008-12-09 09:16:52 51°13.755 2°52.736 245.7 2 238 12.7
2008-12-09 09:16:57 51°13.753 2°52.733 245.8 2 242 12.7
2008-12-09 09:17:02 51°13.752 2°52.729 245.9 2.1 233 12.9
2008-12-09 09:17:07 51°13.75 2°52.725 246 2 238 13.1
2008-12-09 09:17:12 51°13.749 2°52.721 245.8 2.1 237 13.2
2008-12-09 09:17:17 51°13.747 2°52.718 245.7 2 235 13
2008-12-09 09:17:22 51°13.745 2°52.714 245.4 2 235 12.9
2008-12-09 09:17:27 51°13.744 2°52.71 245.8 2.1 237 12.9
2008-12-09 09:17:32 51°13.742 2°52.706 245.3 2.1 241 12.9
2008-12-09 09:17:37 51°13.741 2°52.701 245.4 2.2 236 12.9
2008-12-09 09:17:42 51°13.739 2°52.698 245.6 2 239 12.7
2008-12-09 09:17:47 51°13.737 2°52.694 245.8 1.9 237 12.8
2008-12-09 09:17:52 51°13.736 2°52.69 245.4 2 240 12.9
2008-12-09 09:17:57 51°13.734 2°52.687 246 2 235 13
2008-12-09 09:18:02 51°13.733 2°52.683 246.6 2 241 12.9
2008-12-09 09:18:07 51°13.732 2°52.679 246.6 2.1 239 12.8
2008-12-09 09:18:12 51°13.73 2°52.675 246.7 2 243 12.9
2008-12-09 09:18:17 51°13.729 2°52.671 247.1 2.1 240 12.9
2008-12-09 09:18:22 51°13.728 2°52.667 248 2 240 13
2008-12-09 09:18:27 51°13.726 2°52.663 249.2 2 235 13.1
2008-12-09 09:18:32 51°13.725 2°52.659 249.7 1.9 240 12.8
2008-12-09 09:18:37 51°13.723 2°52.656 249.2 1.9 237 12.3
2008-12-09 09:18:42 51°13.722 2°52.652 249 1.9 236 12.2
2008-12-09 09:18:47 51°13.721 2°52.649 249.6 1.9 242 12.1
2008-12-09 09:18:52 51°13.72 2°52.645 250.1 1.9 242 12.3
2008-12-09 09:18:57 51°13.718 2°52.641 249.7 2 239 12.4
2008-12-09 09:19:02 51°13.717 2°52.637 249 2.1 239 12.6
2008-12-09 09:19:07 51°13.715 2°52.633 248.9 2.2 238 12.8
2008-12-09 09:19:12 51°13.714 2°52.629 249.6 2.3 245 12.9
2008-12-09 09:19:17 51°13.713 2°52.624 250.1 2.4 246 12.9
2008-12-09 09:19:22 51°13.712 2°52.619 251 2.5 254 13
2008-12-09 09:19:27 51°13.71 2°52.613 252.5 2.5 251 12.9
2008-12-09 09:19:32 51°13.709 2°52.608 253.1 2.6 251 13
2008-12-09 09:19:37 51°13.709 2°52.602 253.6 2.7 253 12.9
2008-12-09 09:19:42 51°13.708 2°52.596 254.1 2.7 256 12.9
2008-12-09 09:19:47 51°13.707 2°52.59 254.8 2.7 255 12.9
2008-12-09 09:19:52 51°13.706 2°52.585 254.9 2.7 252 12.6
2008-12-09 09:19:57 51°13.704 2°52.58 254.1 2.6 251 12.5
2008-12-09 09:20:02 51°13.703 2°52.574 254.1 2.7 249 12.8
2008-12-09 09:20:07 51°13.702 2°52.569 253.9 2.7 249 12.8
2008-12-09 09:20:12 51°13.701 2°52.563 253.7 2.5 251 12.8
2008-12-09 09:20:17 51°13.7 2°52.559 253.3 2.4 251 12.7
2008-12-09 09:20:22 51°13.699 2°52.554 253.9 2.2 256 12.8
2008-12-09 09:20:27 51°13.698 2°52.549 255.3 2.2 254 12.8
2008-12-09 09:20:32 51°13.698 2°52.545 255.7 2.1 260 12.9
2008-12-09 09:20:37 51°13.697 2°52.54 256.1 2.1 257 13
2008-12-09 09:20:42 51°13.696 2°52.536 256.6 2 261 13.1
2008-12-09 09:20:47 51°13.695 2°52.531 257 2.1 256 13
2008-12-09 09:20:52 51°13.695 2°52.527 257.2 2.1 259 13
2008-12-09 09:20:57 51°13.694 2°52.523 257.4 2 257 13
2008-12-09 09:21:02 51°13.694 2°52.518 257.1 2 259 13
2008-12-09 09:21:07 51°13.693 2°52.514 256.5 2 256 12.8
2008-12-09 09:21:12 51°13.692 2°52.509 255.9 2 257 12.8
2008-12-09 09:21:17 51°13.691 2°52.505 255.8 2.1 254 12.9
2008-12-09 09:21:22 51°13.691 2°52.5 255.7 2.1 253 12.9
2008-12-09 09:21:27 51°13.69 2°52.496 255.7 2.1 254 12.9
2008-12-09 09:21:32 51°13.689 2°52.492 255.8 2 253 13
2008-12-09 09:21:37 51°13.688 2°52.488 255.4 1.9 253 12.8
2008-12-09 09:21:42 51°13.687 2°52.484 254.9 2 233 12.9
2008-12-09 09:21:47 51°13.686 2°52.48 253.9 1.9 242 12.7
2008-12-09 09:21:52 51°13.684 2°52.476 253.3 1.9 244 12.2
2008-12-09 09:21:57 51°13.683 2°52.473 251.7 2 243 12.2
2008-12-09 09:22:02 51°13.682 2°52.469 252.3 1.9 252 12.6
2008-12-09 09:22:07 51°13.681 2°52.465 252.6 1.9 246 12.7
2008-12-09 09:22:12 51°13.68 2°52.461 252.8 1.9 249 13
2008-12-09 09:22:17 51°13.679 2°52.457 253.1 1.9 251 13
2008-12-09 09:22:22 51°13.678 2°52.453 253.7 2 251 13
2008-12-09 09:22:27 51°13.677 2°52.449 253.8 2 250 13
2008-12-09 09:22:32 51°13.676 2°52.445 253.6 2.1 247 13
2008-12-09 09:22:37 51°13.675 2°52.441 253.7 2 250 12.8
2008-12-09 09:22:42 51°13.674 2°52.437 254.5 2 249 12.7
2008-12-09 09:22:47 51°13.674 2°52.433 255.7 1.8 253 12.7
2008-12-09 09:22:52 51°13.673 2°52.429 255.9 1.9 251 12.9
2008-12-09 09:22:57 51°13.672 2°52.425 255.8 1.9 254 12.9
2008-12-09 09:23:02 51°13.671 2°52.421 255.8 1.9 255 12.8
2008-12-09 09:23:07 51°13.67 2°52.417 255.4 1.9 248 12.8
2008-12-09 09:23:12 51°13.669 2°52.413 255.3 1.9 251 12.9
2008-12-09 09:23:17 51°13.668 2°52.41 255.8 1.9 251 12.8
2008-12-09 09:23:22 51°13.666 2°52.406 255 1.7 243 12.8
2008-12-09 09:23:27 51°13.666 2°52.402 254.7 1.7 250 12.9
2008-12-09 09:23:32 51°13.665 2°52.399 254 1.8 246 13
2008-12-09 09:23:37 51°13.664 2°52.395 254 1.8 248 13.1
2008-12-09 09:23:42 51°13.663 2°52.391 254.4 1.9 249 13.1
2008-12-09 09:23:47 51°13.662 2°52.387 255 2 248 13.4
2008-12-09 09:23:52 51°13.66 2°52.383 255 1.9 244 13.1
2008-12-09 09:23:57 51°13.659 2°52.38 254.7 1.9 247 13.1
2008-12-09 09:24:02 51°13.659 2°52.376 254.7 1.8 252 13
2008-12-09 09:24:07 51°13.658 2°52.372 255.1 1.8 253 13
2008-12-09 09:24:12 51°13.657 2°52.369 254.7 1.8 247 12.8
2008-12-09 09:24:17 51°13.656 2°52.365 254.1 1.8 245 12.7
2008-12-09 09:24:22 51°13.655 2°52.362 254.2 1.8 246 12.9
2008-12-09 09:24:27 51°13.654 2°52.358 254.7 1.9 242 12.9
2008-12-09 09:24:32 51°13.653 2°52.354 254.4 1.8 241 12.9
2008-12-09 09:24:37 51°13.652 2°52.351 253.7 1.7 245 12.6
2008-12-09 09:24:42 51°13.651 2°52.347 253.1 1.9 240 12.6
2008-12-09 09:24:47 51°13.65 2°52.344 253.1 1.8 245 12.6
2008-12-09 09:24:52 51°13.649 2°52.341 252.6 1.6 243 12.8
2008-12-09 09:24:57 51°13.648 2°52.337 253 1.7 250 12.8
2008-12-09 09:25:02 51°13.647 2°52.334 253.4 1.7 247 12.9
2008-12-09 09:25:07 51°13.646 2°52.33 254.4 1.8 252 13
2008-12-09 09:25:12 51°13.646 2°52.326 254.9 1.7 249 13.2
2008-12-09 09:25:17 51°13.645 2°52.323 255.2 1.8 252 13.3
2008-12-09 09:25:22 51°13.644 2°52.319 255.4 1.8 253 13.3
2008-12-09 09:25:27 51°13.643 2°52.315 255.4 1.9 250 13.4
2008-12-09 09:25:32 51°13.643 2°52.311 255.6 1.9 253 13.4
2008-12-09 09:25:37 51°13.642 2°52.307 255.4 1.8 250 13.3
2008-12-09 09:25:42 51°13.641 2°52.303 255.2 1.9 247 13.3
2008-12-09 09:25:47 51°13.64 2°52.299 255.4 1.9 254 13.1
2008-12-09 09:25:52 51°13.64 2°52.295 255.6 1.9 251 12.8
2008-12-09 09:25:57 51°13.639 2°52.291 256 1.9 258 12.8
2008-12-09 09:26:02 51°13.638 2°52.287 256.4 1.9 253 12.9
2008-12-09 09:26:07 51°13.638 2°52.282 256.5 1.9 255 13.1
2008-12-09 09:26:12 51°13.637 2°52.278 256.9 1.9 252 13
2008-12-09 09:26:17 51°13.636 2°52.275 256.3 1.8 251 13.3
2008-12-09 09:26:22 51°13.635 2°52.271 255.4 1.8 251 13.3
2008-12-09 09:26:27 51°13.635 2°52.267 254.7 1.7 255 13
2008-12-09 09:26:32 51°13.634 2°52.263 255 1.7 243 13.1
2008-12-09 09:26:37 51°13.633 2°52.26 255.3 1.6 243 13
2008-12-09 09:26:42 51°13.632 2°52.257 253.6 1.8 240 12.8
2008-12-09 09:26:47 51°13.631 2°52.253 252.8 1.7 252 12.7
2008-12-09 09:26:52 51°13.63 2°52.25 252.2 1.8 236 12.7
2008-12-09 09:26:57 51°13.629 2°52.246 252 1.8 250 12.9
2008-12-09 09:27:02 51°13.628 2°52.242 252.6 1.8 245 13
2008-12-09 09:27:07 51°13.627 2°52.239 252.7 1.8 247 12.7
2008-12-09 09:27:12 51°13.626 2°52.235 252.7 1.9 249 12.6
2008-12-09 09:27:17 51°13.625 2°52.232 253.7 1.9 248 12.6
2008-12-09 09:27:22 51°13.624 2°52.228 254.2 1.8 248 12.6
2008-12-09 09:27:27 51°13.623 2°52.224 254.4 1.8 249 12.9
2008-12-09 09:27:32 51°13.623 2°52.22 255 1.9 252 13
2008-12-09 09:27:37 51°13.622 2°52.216 255.4 1.9 251 13.1
2008-12-09 09:27:42 51°13.621 2°52.212 255.5 1.9 255 13.3
2008-12-09 09:27:47 51°13.62 2°52.208 255.4 1.9 250 13.4
2008-12-09 09:27:52 51°13.62 2°52.204 255.2 1.9 257 13.4
2008-12-09 09:27:57 51°13.619 2°52.2 255.4 1.9 249 13.6
2008-12-09 09:28:02 51°13.618 2°52.196 255.5 1.9 255 13.3
2008-12-09 09:28:07 51°13.617 2°52.192 255 1.8 250 13.1
2008-12-09 09:28:12 51°13.616 2°52.188 254.7 1.8 253 13.2
2008-12-09 09:28:17 51°13.616 2°52.184 254.4 1.9 253 13.2
2008-12-09 09:28:22 51°13.615 2°52.18 254.3 1.9 251 13.3
2008-12-09 09:28:27 51°13.614 2°52.176 254.7 2 253 13.2
2008-12-09 09:28:32 51°13.613 2°52.171 254.8 2 254 13.2
2008-12-09 09:28:37 51°13.612 2°52.167 254.7 2.1 253 13
2008-12-09 09:28:42 51°13.611 2°52.163 254.6 2 257 13
2008-12-09 09:28:47 51°13.611 2°52.159 254.3 2 252 13.2
2008-12-09 09:28:52 51°13.61 2°52.155 254.6 2 254 13.2
2008-12-09 09:28:57 51°13.608 2°52.151 254.7 1.9 236 13.4
2008-12-09 09:29:02 51°13.607 2°52.148 254.7 2 236 13
2008-12-09 09:29:07 51°13.605 2°52.144 252.4 2.1 236 12.4
2008-12-09 09:29:12 51°13.604 2°52.14 250.1 2 238 12.3
2008-12-09 09:29:17 51°13.603 2°52.137 249.1 1.9 241 12.3
2008-12-09 09:29:22 51°13.602 2°52.133 249.8 1.8 242 12.6
2008-12-09 09:29:27 51°13.601 2°52.13 250.6 1.8 242 13.1
2008-12-09 09:29:32 51°13.6 2°52.126 251.7 1.7 248 13.3
2008-12-09 09:29:37 51°13.599 2°52.122 252.6 1.7 246 13.5
2008-12-09 09:29:42 51°13.598 2°52.119 253.3 1.7 249 13.5
2008-12-09 09:29:47 51°13.597 2°52.116 253.8 1.6 248 13.5
2008-12-09 09:29:52 51°13.596 2°52.112 254 1.6 245 13.3
2008-12-09 09:29:57 51°13.595 2°52.109 253.9 1.8 244 13.1
2008-12-09 09:30:02 51°13.594 2°52.105 253.3 1.7 250 13
2008-12-09 09:30:07 51°13.593 2°52.101 253.6 1.8 249 13
2008-12-09 09:30:12 51°13.592 2°52.098 253.8 1.9 246 12.8
2008-12-09 09:30:17 51°13.591 2°52.094 254.1 2 250 12.8
2008-12-09 09:30:22 51°13.59 2°52.089 254.1 2 251 13
2008-12-09 09:30:27 51°13.589 2°52.085 254 2.1 251 13.2
2008-12-09 09:30:32 51°13.588 2°52.08 254.2 2.2 249 13.4
2008-12-09 09:30:37 51°13.587 2°52.076 254.6 2.2 252 13.3
2008-12-09 09:30:42 51°13.587 2°52.071 255.2 2.3 253 13.2
2008-12-09 09:30:47 51°13.586 2°52.066 254.9 2.3 251 13.1
2008-12-09 09:30:52 51°13.585 2°52.062 254.7 2.4 250 13.2
2008-12-09 09:30:57 51°13.584 2°52.057 254.6 2.4 249 13.1
2008-12-09 09:31:02 51°13.582 2°52.052 254.4 2.3 249 13.2
2008-12-09 09:31:07 51°13.581 2°52.048 254.4 2.3 251 13.1
2008-12-09 09:31:12 51°13.58 2°52.043 254.4 2.3 248 13.1
2008-12-09 09:31:17 51°13.579 2°52.039 254.1 2.2 243 12.9
2008-12-09 09:31:22 51°13.578 2°52.035 254 2.1 249 12.9
2008-12-09 09:31:27 51°13.577 2°52.031 254.8 2 246 12.5
2008-12-09 09:31:32 51°13.577 2°52.027 255.1 2 249 12.5
2008-12-09 09:31:37 51°13.576 2°52.023 255.3 2 245 12.5
2008-12-09 09:31:42 51°13.575 2°52.019 255.1 2 247 12.7
2008-12-09 09:31:47 51°13.574 2°52.016 254.8 1.8 247 12.8
2008-12-09 09:31:52 51°13.573 2°52.012 254.5 1.8 249 12.9
2008-12-09 09:31:57 51°13.572 2°52.008 255 1.8 242 13.1
2008-12-09 09:32:02 51°13.571 2°52.004 255.6 1.9 250 13.1
2008-12-09 09:32:07 51°13.57 2°52.001 255.1 2 243 13.1
2008-12-09 09:32:12 51°13.569 2°51.996 255.4 1.9 252 13.1
2008-12-09 09:32:17 51°13.568 2°51.992 255.6 2 252 13.2
2008-12-09 09:32:22 51°13.568 2°51.988 255.8 2 256 13.4
2008-12-09 09:32:27 51°13.567 2°51.984 256.1 2.1 254 13.5
2008-12-09 09:32:32 51°13.566 2°51.979 256.8 2.1 256 13.5
2008-12-09 09:32:37 51°13.565 2°51.975 257.2 2.1 256 13.4
2008-12-09 09:32:42 51°13.565 2°51.97 257.3 2.1 260 13.4
2008-12-09 09:32:47 51°13.564 2°51.966 257.6 2 258 13.3
2008-12-09 09:32:52 51°13.563 2°51.962 257.3 2.1 247 13.2
2008-12-09 09:32:57 51°13.562 2°51.958 257.2 1.8 256 13
2008-12-09 09:33:02 51°13.561 2°51.954 257.6 1.7 252 12.7
2008-12-09 09:33:07 51°13.56 2°51.95 257.7 1.8 251 12.6
2008-12-09 09:33:12 51°13.559 2°51.945 258 2 252 12.6
2008-12-09 09:33:17 51°13.558 2°51.941 258.1 2 252 12.8
2008-12-09 09:33:22 51°13.557 2°51.937 257 2.1 251 13.1
2008-12-09 09:33:27 51°13.556 2°51.933 256.4 2.1 249 13.4
2008-12-09 09:33:32 51°13.555 2°51.928 255.9 2 253 13.6
2008-12-09 09:33:37 51°13.555 2°51.924 255.4 2.1 255 13.6
2008-12-09 09:33:42 51°13.554 2°51.92 255.1 2 248 13.8
2008-12-09 09:33:47 51°13.553 2°51.915 255.7 2 253 13.8
2008-12-09 09:33:52 51°13.551 2°51.911 255.2 2 250 13.4
2008-12-09 09:33:57 51°13.55 2°51.906 253.9 2.1 247 13.1
2008-12-09 09:34:02 51°13.549 2°51.902 253.7 2.2 249 13.2
2008-12-09 09:34:07 51°13.548 2°51.897 253.9 2.2 250 13.4
2008-12-09 09:34:12 51°13.548 2°51.893 254.3 2.2 254 13.6
2008-12-09 09:34:17 51°13.546 2°51.889 255 2.1 250 13.5
2008-12-09 09:34:22 51°13.545 2°51.885 255 2 249 13.7
2008-12-09 09:34:27 51°13.544 2°51.88 254.7 2.1 245 13.6
2008-12-09 09:34:32 51°13.543 2°51.876 253.5 2.2 245 13.4
2008-12-09 09:34:37 51°13.542 2°51.872 253.2 2.2 244 13.2
2008-12-09 09:34:42 51°13.54 2°51.868 253.6 2.2 241 13.3
2008-12-09 09:34:47 51°13.539 2°51.864 254.1 2.1 236 13
2008-12-09 09:34:52 51°13.538 2°51.86 253.2 1.9 237 12.6
2008-12-09 09:34:57 51°13.536 2°51.857 251.4 1.9 230 12.3
2008-12-09 09:35:02 51°13.535 2°51.854 250.1 1.8 236 12.2
2008-12-09 09:35:07 51°13.534 2°51.85 249.6 1.8 235 12.5
2008-12-09 09:35:12 51°13.533 2°51.847 249.7 1.7 238 13
2008-12-09 09:35:17 51°13.531 2°51.843 250.8 1.9 241 13.1
2008-12-09 09:35:22 51°13.53 2°51.84 251 1.9 242 13.5
2008-12-09 09:35:27 51°13.529 2°51.836 251.2 2 237 13.7
2008-12-09 09:35:32 51°13.528 2°51.832 250.9 1.8 251 13.7
2008-12-09 09:35:37 51°13.527 2°51.828 251.4 1.8 242 13.7
2008-12-09 09:35:42 51°13.526 2°51.824 252 1.9 250 13.6
2008-12-09 09:35:47 51°13.524 2°51.82 252.7 2 246 13.3
2008-12-09 09:35:52 51°13.523 2°51.816 253.2 2.1 248 13.3
2008-12-09 09:35:57 51°13.522 2°51.812 253.6 2.2 247 13.1
2008-12-09 09:36:02 51°13.521 2°51.808 253.6 2.1 249 13.1
2008-12-09 09:36:07 51°13.52 2°51.804 253.2 2.1 249 13.2
2008-12-09 09:36:12 51°13.519 2°51.799 253.1 2.2 249 13.3
2008-12-09 09:36:17 51°13.518 2°51.794 253.5 2.2 251 13.5
2008-12-09 09:36:22 51°13.517 2°51.79 254.2 2.1 253 13.7
2008-12-09 09:36:27 51°13.516 2°51.786 254.6 2.1 247 13.8
2008-12-09 09:36:32 51°13.514 2°51.781 253.9 2.1 244 13.7
2008-12-09 09:36:37 51°13.513 2°51.776 253.9 2.2 251 13.5
2008-12-09 09:36:42 51°13.512 2°51.772 254 2.2 251 13.2
2008-12-09 09:36:47 51°13.511 2°51.767 254.1 2.3 255 13.3
2008-12-09 09:36:52 51°13.51 2°51.762 254.8 2.2 250 13.3
2008-12-09 09:36:57 51°13.509 2°51.757 255.2 2.2 251 13.4
2008-12-09 09:37:02 51°13.508 2°51.753 255.6 2.3 246 13.5
2008-12-09 09:37:07 51°13.507 2°51.748 255.9 2.2 247 13.5
2008-12-09 09:37:12 51°13.506 2°51.744 255.5 2.2 252 13.1
2008-12-09 09:37:17 51°13.506 2°51.739 256.1 2.1 256 13
2008-12-09 09:37:22 51°13.505 2°51.734 257.1 2.1 254 13
2008-12-09 09:37:27 51°13.504 2°51.73 258.2 2 255 13
2008-12-09 09:37:32 51°13.503 2°51.725 258.7 2.1 253 12.9
2008-12-09 09:37:37 51°13.502 2°51.721 258.9 2.1 252 13.1
2008-12-09 09:37:42 51°13.501 2°51.716 258.4 2.2 248 13
2008-12-09 09:37:47 51°13.5 2°51.712 258.3 2.1 253 13.1
2008-12-09 09:37:52 51°13.5 2°51.708 257.7 2.1 251 13.2
2008-12-09 09:37:57 51°13.499 2°51.704 258 2 254 13.5
2008-12-09 09:38:02 51°13.498 2°51.699 258.3 2.1 251 13.6
2008-12-09 09:38:07 51°13.497 2°51.695 258.3 2.1 257 13.6
2008-12-09 09:38:12 51°13.497 2°51.691 258.1 2.1 250 13.4
2008-12-09 09:38:17 51°13.496 2°51.687 258.3 2 254 13.6
2008-12-09 09:38:22 51°13.494 2°51.682 257.8 2 251 13.7
2008-12-09 09:38:27 51°13.494 2°51.677 257.6 2 255 13.4
2008-12-09 09:38:32 51°13.493 2°51.673 256.9 2.2 244 13.1
2008-12-09 09:38:37 51°13.492 2°51.669 257.3 2.1 250 13.2
2008-12-09 09:38:42 51°13.491 2°51.665 257.6 2.2 242 13
2008-12-09 09:38:47 51°13.49 2°51.661 258.1 2.1 245 13.1
2008-12-09 09:38:52 51°13.489 2°51.656 258.6 2 247 13.2
2008-12-09 09:38:57 51°13.489 2°51.652 258.5 2 264 13.1
2008-12-09 09:39:02 51°13.488 2°51.648 258.2 1.9 252 13.1
2008-12-09 09:39:07 51°13.487 2°51.644 258.9 1.8 256 13.6
2008-12-09 09:39:12 51°13.487 2°51.64 258.6 1.7 256 13.6
2008-12-09 09:39:17 51°13.486 2°51.636 257.5 1.8 253 13.7
2008-12-09 09:39:22 51°13.485 2°51.632 256.8 1.8 256 13.7
2008-12-09 09:39:27 51°13.484 2°51.628 256.8 1.8 252 13.8
2008-12-09 09:39:32 51°13.484 2°51.624 256.9 1.8 251 13.9
2008-12-09 09:39:37 51°13.482 2°51.621 257.1 1.8 248 13.9
2008-12-09 09:39:42 51°13.482 2°51.616 256.3 1.8 254 13.6
2008-12-09 09:39:47 51°13.481 2°51.613 255.6 1.8 246 13.4
2008-12-09 09:39:52 51°13.48 2°51.609 256.1 1.7 248 13.5
2008-12-09 09:39:57 51°13.479 2°51.605 255.5 1.7 244 13.4
2008-12-09 09:40:02 51°13.478 2°51.601 254.6 1.9 244 13.6
2008-12-09 09:40:07 51°13.477 2°51.597 253.9 1.8 246 13.3
2008-12-09 09:40:12 51°13.476 2°51.594 254.2 1.8 248 13.5
2008-12-09 09:40:17 51°13.475 2°51.59 254 1.9 247 13.5
2008-12-09 09:40:22 51°13.474 2°51.586 254.1 1.8 250 13.7
2008-12-09 09:40:27 51°13.473 2°51.582 254.7 1.9 251 13.7
2008-12-09 09:40:32 51°13.472 2°51.578 254.9 2 255 13.7
2008-12-09 09:40:37 51°13.471 2°51.574 255.5 2 252 13.6
2008-12-09 09:40:42 51°13.47 2°51.569 256.1 2.1 256 13.6
2008-12-09 09:40:47 51°13.47 2°51.565 256.4 2 252 13.6
2008-12-09 09:40:52 51°13.469 2°51.561 257.1 2 255 13.7
2008-12-09 09:40:57 51°13.468 2°51.557 258.1 1.8 255 13.6
2008-12-09 09:41:02 51°13.468 2°51.553 258.8 1.9 257 13.5
2008-12-09 09:41:07 51°13.467 2°51.549 257.9 1.9 254 13.4
2008-12-09 09:41:12 51°13.466 2°51.544 257.9 1.9 255 13.4
2008-12-09 09:41:17 51°13.466 2°51.54 258.2 1.9 257 13.6
2008-12-09 09:41:22 51°13.465 2°51.536 258.3 1.9 256 13.8
2008-12-09 09:41:27 51°13.464 2°51.532 259.2 1.9 258 13.8
2008-12-09 09:41:32 51°13.464 2°51.527 259.4 2 261 13.6
2008-12-09 09:41:37 51°13.464 2°51.523 260.4 2.1 261 13.6
2008-12-09 09:41:42 51°13.463 2°51.518 260.7 2 261 13.4
2008-12-09 09:41:47 51°13.463 2°51.514 261.1 2.2 260 13.5
2008-12-09 09:41:52 51°13.462 2°51.509 261.6 2.1 246 13.2
2008-12-09 09:41:57 51°13.461 2°51.505 261.3 1.9 259 12.9
2008-12-09 09:42:02 51°13.461 2°51.501 259.5 2 246 13
2008-12-09 09:42:07 51°13.46 2°51.497 258.8 1.9 261 13.3
2008-12-09 09:42:12 51°13.46 2°51.493 259.2 1.8 264 13.2
2008-12-09 09:42:17 51°13.459 2°51.489 259.7 1.8 265 13.1
2008-12-09 09:42:22 51°13.459 2°51.485 260.4 1.8 259 13.3
2008-12-09 09:42:27 51°13.458 2°51.481 260.9 2 264 13.5
2008-12-09 09:42:32 51°13.458 2°51.477 260.6 2.1 258 13.5
2008-12-09 09:42:37 51°13.457 2°51.472 259.8 2.1 260 13.8
2008-12-09 09:42:42 51°13.456 2°51.467 259.5 2.1 257 14
2008-12-09 09:42:47 51°13.456 2°51.462 259.4 2.2 261 14.1
2008-12-09 09:42:52 51°13.456 2°51.458 259.4 2.3 261 14
2008-12-09 09:42:57 51°13.455 2°51.453 259.9 2.2 260 14
2008-12-09 09:43:02 51°13.454 2°51.447 259.8 2.3 257 14
2008-12-09 09:43:07 51°13.454 2°51.442 259.6 2.3 258 14.1
2008-12-09 09:43:12 51°13.453 2°51.437 259.3 2.3 261 13.8
2008-12-09 09:43:17 51°13.452 2°51.432 260 2.3 260 13.7
2008-12-09 09:43:22 51°13.452 2°51.427 260 2.4 260 13.6
2008-12-09 09:43:27 51°13.451 2°51.422 259.3 2.4 261 13.5
2008-12-09 09:43:32 51°13.451 2°51.416 259.6 2.4 259 13.5
2008-12-09 09:43:37 51°13.449 2°51.412 259.4 2.4 253 13.4
2008-12-09 09:43:42 51°13.449 2°51.408 259 2 260 13
2008-12-09 09:43:47 51°13.448 2°51.404 259.6 2 256 13.1
2008-12-09 09:43:52 51°13.448 2°51.399 259.6 2 258 13
2008-12-09 09:43:57 51°13.447 2°51.396 259.3 1.9 255 12.9
2008-12-09 09:44:02 51°13.446 2°51.393 259.7 1.7 256 13.3
2008-12-09 09:44:07 51°13.446 2°51.389 259.4 1.6 256 13.5
2008-12-09 09:44:12 51°13.446 2°51.386 259 1.7 260 13.7
2008-12-09 09:44:17 51°13.445 2°51.382 259.1 1.7 256 14
2008-12-09 09:44:22 51°13.445 2°51.379 259.6 1.6 264 13.9
2008-12-09 09:44:27 51°13.444 2°51.376 259.8 1.6 246 13.5
2008-12-09 09:44:32 51°13.443 2°51.373 259.5 1.4 254 13.5
2008-12-09 09:44:37 51°13.442 2°51.37 258.8 1.6 235 13.8
2008-12-09 09:44:42 51°13.442 2°51.367 257.4 1.5 253 13.5
2008-12-09 09:44:47 51°13.441 2°51.364 257.2 1.5 247 13.5
2008-12-09 09:44:52 51°13.44 2°51.361 258 1.4 255 13.4
2008-12-09 09:44:57 51°13.44 2°51.359 258.2 1.4 254 13.5
2008-12-09 09:45:02 51°13.439 2°51.356 258.5 1.3 256 13.8
2008-12-09 09:45:07 51°13.438 2°51.352 259.1 1.4 251 13.7
2008-12-09 09:45:12 51°13.438 2°51.349 259.4 1.6 252 13.7
2008-12-09 09:45:17 51°13.437 2°51.345 259.5 1.6 254 13.6
2008-12-09 09:45:22 51°13.436 2°51.342 258.6 1.7 250 13.4
2008-12-09 09:45:27 51°13.436 2°51.338 258.4 1.6 247 13.6
2008-12-09 09:45:32 51°13.435 2°51.335 258 1.6 247 13.9
2008-12-09 09:45:37 51°13.434 2°51.331 258.3 1.7 253 13.9
2008-12-09 09:45:42 51°13.433 2°51.327 257.8 2 259 13.8
2008-12-09 09:45:47 51°13.433 2°51.323 257.5 2 258 13.7
2008-12-09 09:45:52 51°13.431 2°51.319 257.6 1.8 244 13.4
2008-12-09 09:45:57 51°13.43 2°51.315 257.5 1.9 235 13.1
2008-12-09 09:46:02 51°13.429 2°51.312 256.1 2 238 12.9
2008-12-09 09:46:07 51°13.428 2°51.308 254.7 1.9 245 12.9
2008-12-09 09:46:12 51°13.428 2°51.305 254.8 1.7 249 13.2
2008-12-09 09:46:17 51°13.427 2°51.3 255.8 1.7 256 13.4
2008-12-09 09:46:22 51°13.426 2°51.297 255.8 1.8 253 13.5
2008-12-09 09:46:27 51°13.425 2°51.292 256 1.8 258 13.5
2008-12-09 09:46:32 51°13.424 2°51.288 256.4 1.9 255 13.5
2008-12-09 09:46:37 51°13.424 2°51.284 258.1 1.9 264 13.8
2008-12-09 09:46:42 51°13.423 2°51.279 259 2.1 257 14
2008-12-09 09:46:47 51°13.422 2°51.275 259.1 2.1 255 13.8
2008-12-09 09:46:52 51°13.421 2°51.27 258.9 2.1 259 14
2008-12-09 09:46:57 51°13.421 2°51.266 258.8 2.1 255 14.2
2008-12-09 09:47:02 51°13.42 2°51.261 259 2.1 258 14.3
2008-12-09 09:47:07 51°13.419 2°51.257 259.5 2 251 14.2
2008-12-09 09:47:12 51°13.419 2°51.252 259.5 2.1 257 14.3
2008-12-09 09:47:17 51°13.417 2°51.247 259.7 2.2 249 13.7
2008-12-09 09:47:22 51°13.416 2°51.243 258.8 2.3 244 13.3
2008-12-09 09:47:27 51°13.415 2°51.239 258.9 2.1 249 13
2008-12-09 09:47:32 51°13.414 2°51.235 255.8 1.9 241 12.9
2008-12-09 09:47:37 51°13.413 2°51.231 254.7 1.8 253 4.8
2008-12-09 09:47:42 51°13.413 2°51.227 256.1 1.9 255 13.1
2008-12-09 09:47:47 51°13.412 2°51.222 256.1 2 262 13.3
2008-12-09 09:47:52 51°13.411 2°51.218 257.7 2.1 256 13.7
2008-12-09 09:47:57 51°13.41 2°51.214 258.7 2.1 257 14
2008-12-09 09:48:02 51°13.41 2°51.209 259.7 2.2 261 14.3
2008-12-09 09:48:07 51°13.409 2°51.204 260.1 2.2 263 14.4
2008-12-09 09:48:12 51°13.409 2°51.199 260.5 2.3 258 14.3
2008-12-09 09:48:17 51°13.408 2°51.195 261.1 2.2 256 14.3
2008-12-09 09:48:22 51°13.407 2°51.19 261 2.2 252 14.1
2008-12-09 09:48:27 51°13.406 2°51.185 260.2 2.3 259 14
2008-12-09 09:48:32 51°13.405 2°51.181 258.6 2.3 257 13.7
2008-12-09 09:48:37 51°13.405 2°51.176 258.9 2.1 262 13.7
2008-12-09 09:48:42 51°13.404 2°51.172 259.3 2.1 257 13.8
2008-12-09 09:48:47 51°13.404 2°51.167 259.8 2.1 261 14.1
2008-12-09 09:48:52 51°13.404 2°51.162 261.2 2 270 14
2008-12-09 09:48:57 51°13.403 2°51.158 262.6 1.8 267 14
2008-12-09 09:49:02 51°13.403 2°51.155 265.6 1.6 280 14
2008-12-09 09:49:07 51°13.404 2°51.151 269.8 1.7 282 13.8
2008-12-09 09:49:12 51°13.404 2°51.147 273.6 1.7 284 13.4
2008-12-09 09:49:17 51°13.405 2°51.144 277.9 1.8 291 13.7
2008-12-09 09:49:22 51°13.406 2°51.14 281.1 2 289 13.8
2008-12-09 09:49:27 51°13.407 2°51.136 282.8 2 289 13.9
2008-12-09 09:49:32 51°13.408 2°51.132 284 1.9 288 13.7
2008-12-09 09:49:37 51°13.409 2°51.128 284.5 1.8 291 13.8
2008-12-09 09:49:42 51°13.41 2°51.125 285.1 1.8 291 13.8
2008-12-09 09:49:47 51°13.411 2°51.121 285.4 1.8 291 14
2008-12-09 09:49:52 51°13.412 2°51.117 285.4 1.7 298 14.2
2008-12-09 09:49:57 51°13.413 2°51.113 285 1.7 293 14.2
2008-12-09 09:50:02 51°13.414 2°51.11 284.5 1.8 298 14.1
2008-12-09 09:50:07 51°13.415 2°51.106 283.9 1.5 276 14.1
2008-12-09 09:50:12 51°13.415 2°51.102 283.4 1.5 280 14.3
2008-12-09 09:50:17 51°13.416 2°51.098 282.3 1.6 285 13.5
2008-12-09 09:50:22 51°13.416 2°51.095 279.6 1.8 280 13.3
2008-12-09 09:50:27 51°13.417 2°51.09 279 2 283 13.2
2008-12-09 09:50:32 51°13.417 2°51.086 278.5 1.9 280 13.1
2008-12-09 09:50:37 51°13.418 2°51.083 278.2 1.8 282 13.3
2008-12-09 09:50:42 51°13.418 2°51.079 277.1 1.7 276 13.6
2008-12-09 09:50:47 51°13.418 2°51.075 275.4 1.8 284 14
2008-12-09 09:50:52 51°13.419 2°51.071 274.9 1.9 279 14.2
2008-12-09 09:50:57 51°13.418 2°51.068 274.1 1.8 273 14.3
2008-12-09 09:51:02 51°13.419 2°51.063 273.6 1.8 278 14.1
2008-12-09 09:51:07 51°13.419 2°51.059 272.2 1.9 272 13.8
2008-12-09 09:51:12 51°13.419 2°51.055 270.9 2 276 13.9
2008-12-09 09:51:17 51°13.419 2°51.051 270.6 2 277 14
2008-12-09 09:51:22 51°13.419 2°51.046 270.9 2.1 275 14.2
2008-12-09 09:51:27 51°13.42 2°51.041 270.9 2.2 275 14.3
2008-12-09 09:51:32 51°13.42 2°51.037 270.6 2.1 277 14.3
2008-12-09 09:51:37 51°13.421 2°51.032 270.4 2.1 277 14.4
2008-12-09 09:51:42 51°13.421 2°51.027 270.6 2.2 274 14.2
2008-12-09 09:51:47 51°13.421 2°51.022 270.2 2.2 269 14.1
2008-12-09 09:51:52 51°13.42 2°51.018 269.1 2 269 13.9
2008-12-09 09:51:57 51°13.42 2°51.013 267.6 2 267 13.8
2008-12-09 09:52:02 51°13.42 2°51.009 266.3 2 258 13.6
2008-12-09 09:52:07 51°13.419 2°51.004 264.6 2.2 255 13.5
2008-12-09 09:52:12 51°13.419 2°51 262.8 1.9 258 13.5
2008-12-09 09:52:17 51°13.418 2°50.995 261.1 1.8 255 13.5
2008-12-09 09:52:22 51°13.417 2°50.991 259.6 2 257 12.9
2008-12-09 09:52:27 51°13.417 2°50.987 258.4 2 262 12.9
2008-12-09 09:52:32 51°13.416 2°50.982 258.9 2 258 13.2
2008-12-09 09:52:37 51°13.416 2°50.978 258.9 2 255 13.5
2008-12-09 09:52:42 51°13.415 2°50.973 258.4 2.2 258 13.9
2008-12-09 09:52:47 51°13.414 2°50.969 257.6 2.2 254 14.2
2008-12-09 09:52:52 51°13.413 2°50.964 256.6 2.2 256 14.4
2008-12-09 09:52:57 51°13.412 2°50.96 256.1 2.3 253 14.4
2008-12-09 09:53:02 51°13.411 2°50.955 255.2 2.3 258 14.3
2008-12-09 09:53:07 51°13.41 2°50.95 254.6 2.3 249 14.2
2008-12-09 09:53:12 51°13.409 2°50.946 253.9 2.2 242 14.3
2008-12-09 09:53:17 51°13.407 2°50.941 253 2.3 245 14
2008-12-09 09:53:22 51°13.406 2°50.937 251.3 2.2 239 13.9
2008-12-09 09:53:27 51°13.405 2°50.932 251 2.1 246 13.8
2008-12-09 09:53:32 51°13.404 2°50.928 250.5 2.1 247 13.5
2008-12-09 09:53:37 51°13.402 2°50.925 249.8 1.9 246 13.5
2008-12-09 09:53:42 51°13.401 2°50.921 249.3 1.8 245 13.5
2008-12-09 09:53:47 51°13.4 2°50.917 248.5 1.7 244 13.7
2008-12-09 09:53:52 51°13.399 2°50.914 248 1.8 240 14
2008-12-09 09:53:57 51°13.398 2°50.91 248.3 1.9 246 14
2008-12-09 09:54:02 51°13.396 2°50.906 249.4 2 241 13.9
2008-12-09 09:54:07 51°13.395 2°50.903 249.6 2 240 13.8
2008-12-09 09:54:12 51°13.394 2°50.899 248.8 1.9 235 13.6
2008-12-09 09:54:17 51°13.393 2°50.896 247.9 1.7 243 13.6
2008-12-09 09:54:22 51°13.392 2°50.893 248.1 1.8 236 13.7
2008-12-09 09:54:27 51°13.391 2°50.89 248.7 1.7 243 13.8
2008-12-09 09:54:32 51°13.39 2°50.887 249 1.7 244 13.9
2008-12-09 09:54:37 51°13.389 2°50.884 249.2 1.7 241 14
2008-12-09 09:54:42 51°13.387 2°50.88 249.1 1.8 239 14.1
2008-12-09 09:54:47 51°13.386 2°50.877 249.2 1.8 242 14.2
2008-12-09 09:54:52 51°13.385 2°50.874 248.7 1.5 243 14.2
2008-12-09 09:54:57 51°13.384 2°50.871 248.5 1.6 247 14.2
2008-12-09 09:55:02 51°13.383 2°50.868 249.3 1.5 241 14.1
2008-12-09 09:55:07 51°13.382 2°50.865 250.1 1.4 247 14
2008-12-09 09:55:12 51°13.381 2°50.862 250.6 1.6 241 13.9
2008-12-09 09:55:17 51°13.38 2°50.858 250.5 1.6 246 13.7
2008-12-09 09:55:22 51°13.379 2°50.856 250.4 1.6 238 13.6
2008-12-09 09:55:27 51°13.378 2°50.853 250.8 1.5 246 13.9
2008-12-09 09:55:32 51°13.378 2°50.85 251 1.4 247 14.1
2008-12-09 09:55:37 51°13.377 2°50.847 251.3 1.4 243 14.2
2008-12-09 09:55:42 51°13.375 2°50.844 251.7 1.4 241 14
2008-12-09 09:55:47 51°13.374 2°50.842 251.3 1.4 235 13.7
2008-12-09 09:55:52 51°13.373 2°50.839 250.4 1.5 241 13.9
2008-12-09 09:55:57 51°13.372 2°50.836 250.2 1.5 243 14
2008-12-09 09:56:02 51°13.371 2°50.833 250 1.5 245 14
2008-12-09 09:56:07 51°13.37 2°50.829 249.7 1.6 240 13.9
2008-12-09 09:56:12 51°13.369 2°50.826 249.7 1.7 241 14
2008-12-09 09:56:17 51°13.368 2°50.823 249.8 1.5 237 14.1
2008-12-09 09:56:22 51°13.367 2°50.82 250.2 1.4 247 14
2008-12-09 09:56:27 51°13.365 2°50.818 249.7 1.4 235 13.7
2008-12-09 09:56:32 51°13.364 2°50.815 249.8 1.4 235 13.6
2008-12-09 09:56:37 51°13.364 2°50.813 250.5 1.3 238 13.6
2008-12-09 09:56:42 51°13.363 2°50.811 251.9 1.1 241 13.7
2008-12-09 09:56:47 51°13.362 2°50.81 252.8 0.8 240 13.9
2008-12-09 09:56:52 51°13.362 2°50.808 254 0.7 233 14.1
2008-12-09 09:56:57 51°13.361 2°50.806 255.3 0.8 236 14.1
2008-12-09 09:57:02 51°13.361 2°50.805 256.1 0.8 237 14.1
2008-12-09 09:57:07 51°13.36 2°50.803 256.2 0.8 249 14.1
2008-12-09 09:57:12 51°13.36 2°50.801 257.2 0.9 244 14
2008-12-09 09:57:17 51°13.359 2°50.799 258.3 0.9 249 14
2008-12-09 09:57:22 51°13.359 2°50.798 258.9 0.8 246 13.9
2008-12-09 09:57:27 51°13.358 2°50.796 259.3 0.9 246 13.9
2008-12-09 09:57:32 51°13.358 2°50.795 259.6 0.7 241 13.8
2008-12-09 09:57:37 51°13.357 2°50.793 259.1 0.6 251 13.9
2008-12-09 09:57:42 51°13.357 2°50.792 259.3 0.5 249 13.9
2008-12-09 09:57:47 51°13.357 2°50.791 260.1 0.5 252 14
2008-12-09 09:57:52 51°13.356 2°50.79 260.8 0.4 246 13.9
2008-12-09 09:57:57 51°13.356 2°50.789 261.5 0.3 230 14
2008-12-09 09:58:02 51°13.356 2°50.789 262.5 0.3 230 14.1
2008-12-09 09:58:07 51°13.356 2°50.789 263 0.1 252 14
2008-12-09 09:58:12 51°13.356 2°50.789 263.7 0.2 175 14
2008-12-09 09:58:17 51°13.355 2°50.788 264.1 0.2 188 13.9
2008-12-09 09:58:22 51°13.355 2°50.788 264.7 0.1 171 13.9
2008-12-09 09:58:27 51°13.355 2°50.788 265.7 0.1 87 13.8
2008-12-09 09:58:32 51°13.355 2°50.789 266.4 0.3 171 13.8
2008-12-09 09:58:37 51°13.354 2°50.789 266.9 0.3 156 13.6
2008-12-09 09:58:42 51°13.354 2°50.79 266.6 0.4 135 13.5
2008-12-09 09:58:47 51°13.354 2°50.791 266.5 0.6 117 13.5
2008-12-09 09:58:52 51°13.353 2°50.792 266.1 0.7 111 13.8
2008-12-09 09:58:57 51°13.353 2°50.793 265.7 0.7 101 13.7
2008-12-09 09:59:02 51°13.353 2°50.795 264.3 0.7 94 13.4
2008-12-09 09:59:07 51°13.352 2°50.796 265.2 0.8 113 13.5
2008-12-09 09:59:12 51°13.352 2°50.798 265.7 0.8 102 13.6
2008-12-09 09:59:17 51°13.351 2°50.799 266.3 1.1 123 13.7
2008-12-09 09:59:22 51°13.351 2°50.802 265.8 1.1 124 14.1
2008-12-09 09:59:27 51°13.351 2°50.804 264.7 1 101 14.2
2008-12-09 09:59:32 51°13.35 2°50.805 264.1 0.8 96 13.8
2008-12-09 09:59:37 51°13.35 2°50.807 264.1 1 127 13.5
2008-12-09 09:59:42 51°13.349 2°50.809 264.3 0.9 113 13.5
2008-12-09 09:59:47 51°13.349 2°50.811 263.3 1 114 13.6
2008-12-09 09:59:52 51°13.349 2°50.814 263 1 101 13.8
2008-12-09 09:59:57 51°13.348 2°50.816 262.2 1 106 13.9
2008-12-09 10:00:02 51°13.348 2°50.818 262.4 0.9 112 14.1
2008-12-09 10:00:07 51°13.347 2°50.82 262.7 1.1 122 14.2
2008-12-09 10:00:12 51°13.347 2°50.822 262.3 1.2 105 14.1
2008-12-09 10:00:17 51°13.347 2°50.825 261.7 1.3 110 14.1
2008-12-09 10:00:22 51°13.346 2°50.828 261.3 1.4 106 14.2
2008-12-09 10:00:27 51°13.346 2°50.83 260.1 1.2 87 13.8
2008-12-09 10:00:32 51°13.345 2°50.832 259.6 1.1 109 13
2008-12-09 10:00:37 51°13.345 2°50.834 260.3 1.1 110 12.9
2008-12-09 10:00:42 51°13.345 2°50.837 260.5 1 97 13.2
2008-12-09 10:00:47 51°13.344 2°50.839 260 1.1 96 13.7
2008-12-09 10:00:52 51°13.344 2°50.841 260 1.1 97 14
2008-12-09 10:00:57 51°13.344 2°50.844 260.5 1.1 105 14.2
2008-12-09 10:01:02 51°13.344 2°50.846 260.2 1 92 14.2
2008-12-09 10:01:07 51°13.343 2°50.849 260.5 1.1 94 14.3
2008-12-09 10:01:12 51°13.343 2°50.851 260.1 1 101 14.1
2008-12-09 10:01:17 51°13.342 2°50.853 260.3 1.2 116 13.9
2008-12-09 10:01:22 51°13.342 2°50.856 260.2 1.1 108 13.8
2008-12-09 10:01:27 51°13.342 2°50.859 260.3 1.2 103 13.8
2008-12-09 10:01:32 51°13.342 2°50.861 259.1 1.2 95 13.8
2008-12-09 10:01:37 51°13.341 2°50.864 259.7 1.2 105 14
2008-12-09 10:01:42 51°13.341 2°50.866 259.9 1.2 104 14.1
2008-12-09 10:01:47 51°13.341 2°50.869 259.6 1.3 98 14.1
2008-12-09 10:01:52 51°13.341 2°50.872 259.2 1.3 98 14.2
2008-12-09 10:01:57 51°13.34 2°50.874 259.3 1.3 96 14
2008-12-09 10:02:02 51°13.34 2°50.877 259 1.3 102 13.8
2008-12-09 10:02:07 51°13.34 2°50.88 257.9 1.2 97 13.8